GFSMA_con_mucape_000.txt.gz
CAPE
1451 2048 1750 1942 2172 2355 2904 1880 1904 1516 1678 1295 1653 953 1299 1272 1007 1453 988 1460 2341 2287 2217 2007 1581 1493 1707 1668 1601 1225 1220 1155 810 828 861 854 743 598 559 465 446 526 538
2278 2078 1668 1580 1780 2342 1775 2228 1737 1511 1372 1681 1530 1228 1092 1293 1222 1315 996 1296 1581 2411 2605 2301 1936 1624 1540 1530 1554 1385 1093 663 369 645 725 883 817 1046 737 498 530 486 481
1743 1610 1371 1244 1927 2572 2004 2065 1867 1900 1602 1653 1823 1482 1355 1189 1728 678 1444 1969 1216 2144 2693 2593 2290 1971 1587 1825 1923 1449 1347 951 671 749 709 884 1020 995 1009 925 723 506 577
1665 2025 1302 1150 1480 2161 2095 1607 1405 1365 1603 1668 1717 1449 1375 1094 1238 1319 1137 973 871 985 2106 2606 2350 2037 1981 1628 1845 1532 1595 905 871 758 718 830 814 1028 989 1021 927 962 791
1615 1568 1350 1149 1505 1699 2152 2154 970 1258 1234 1312 1454 1527 1245 1315 1658 1171 1516 984 862 1220 1227 1835 1815 1615 1742 1039 1350 1455 1054 974 909 778 694 671 867 901 886 964 957 971 1025
1294 1397 1394 1287 1272 1012 1823 2074 1291 993 900 801 1227 1163 918 1468 2082 1846 1144 882 1007 1384 1172 778 722 926 1731 1181 1019 1474 1051 636 1169 1063 691 627 848 1031 973 920 881 980 1035
1058 1110 1041 1196 1447 1362 1388 1626 1515 1064 1129 937 847 772 587 1163 1343 1691 1228 1002 742 1146 1161 885 692 574 413 915 907 1761 1327 1175 881 1057 903 545 1000 1013 1010 769 749 907 1043
895 874 951 1265 1146 790 1243 1518 1214 1058 1375 967 610 622 308 905 1143 1300 1283 1275 651 779 949 870 333 261 371 524 1003 1803 1560 1433 1148 1019 553 809 815 952 632 782 632 866 892
773 817 878 1079 1057 1486 939 1244 1043 659 1060 1104 901 322 275 722 962 1352 1267 965 704 626 678 672 606 506 352 541 830 1219 1664 1644 1683 1580 1105 1216 998 1000 605 641 614 631 891
1000 805 816 883 1264 1346 664 1366 698 286 421 820 432 660 356 1028 473 553 817 1252 1082 725 484 558 586 787 647 460 902 937 703 784 1399 1230 1453 1648 1241 881 738 728 733 543 864
1164 747 712 798 1227 1306 1106 851 1060 492 423 323 223 373 428 526 909 396 604 783 706 864 579 492 633 631 797 611 816 713 855 820 953 1123 1460 1344 1705 1130 1057 1011 797 837 1031
1245 909 654 899 1007 1059 863 618 838 711 552 320 230 175 198 229 640 421 313 440 512 596 664 618 644 458 545 698 717 837 970 721 660 767 1051 1525 1578 1431 1218 959 957 907 999
1240 941 783 806 895 1110 871 827 678 412 421 266 122 150 199 328 517 570 563 373 292 418 524 551 406 404 462 456 687 843 849 609 569 656 682 721 798 901 907 816 748 961 922
1077 988 975 836 678 763 727 510 997 328 467 251 290 446 447 571 547 538 447 337 213 314 312 290 543 555 721 659 754 947 577 483 433 473 530 542 759 726 788 992 1227 1657 1684
1058 938 811 721 574 538 898 492 394 469 230 216 136 172 135 147 413 402 830 999 390 104 156 111 60 448 486 870 807 558 833 371 458 461 496 570 591 578 822 1168 941 514 281
897 692 851 713 412 325 371 370 303 449 254 215 232 331 263 64 335 227 592 905 756 432 143 214 274 382 334 585 643 615 475 317 298 256 291 345 386 405 357 207 62 50 47
358 200 283 895 701 354 291 220 340 218 263 186 242 250 202 192 185 278 361 557 335 454 218 252 211 499 299 348 223 257 294 261 235 219 258 261 235 202 177 154 110 136 205
652 238 205 142 299 287 185 253 210 218 168 160 167 124 74 119 228 299 425 410 542 617 295 203 196 317 262 392 178 179 138 157 159 150 113 99 63 20 58 110 128 169 144
389 340 366 430 257 44 29 28 46 27 12 20 25 29 29 50 32 44 188 268 456 377 383 231 175 245 143 247 242 114 71 94 121 119 93 59 44 95 131 118 96 61 49
364 226 77 87 137 116 28 23 14 4 24 42 12 6 9 5 16 5 54 41 122 157 186 123 108 89 87 188 188 118 80 58 64 99 96 79 90 94 57 35 29 16 7
441 222 30 129 79 11 8 4 6 4 11 12 5 20 11 16 41 9 10 17 9 110 146 105 61 74 108 254 237 152 205 67 69 70 45 45 38 31 5 0 0 0 0
397 239 172 81 60 0 16 13 18 24 27 30 28 14 7 18 13 42 42 9 3 45 110 76 170 106 119 111 75 54 47 65 18 0 0 0 0 1 0 0 0 0 0
232 136 17 20 33 25 5 7 0 7 4 13 10 10 26 35 23 4 9 2 19 47 69 98 90 93 73 65 70 14 22 30 22 8 10 8 0 0 0 0 0 0 0
31 0 0 0 0 0 1 21 36 0 0 3 8 0 0 0 1 9 8 52 52 55 52 39 43 41 46 49 54 67 60 51 47 29 10 10 2 0 0 0 0 0 0
5 0 0 0 2 15 10 4 11 14 3 1 4 8 1 11 9 32 47 72 39 51 57 51 47 65 88 97 83 71 64 42 37 21 10 17 2 0 0 0 0 0 0
1 0 0 0 0 16 23 5 5 23 85 55 23 44 6 18 52 41 36 39 14 22 53 49 60 41 6 0 15 1 4 13 4 0 0 0 3 0 0 0 13 1 0

GFSMA_con_mucape_006.txt.gz
CAPE
1256 1421 1452 1251 1261 1278 1242 1243 1200 1071 1014 1072 1021 724 617 551 443 373 247 828 1720 2200 2163 1755 1370 1388 1366 1699 1640 908 827 855 734 837 748 746 561 414 461 505 265 214 225
829 849 1143 989 1063 927 890 1046 924 908 732 746 755 732 715 417 497 456 350 483 1323 2168 2215 2297 1740 1362 1256 1216 1354 1200 1091 1002 1022 880 914 843 952 825 592 459 562 453 249
500 298 605 787 728 749 632 788 717 739 710 643 715 679 565 516 396 494 417 388 317 1821 2322 2553 2285 2175 1927 1578 1268 1436 1613 1274 1214 1359 1127 904 854 1054 969 784 559 543 471
935 749 671 958 656 493 569 524 511 645 597 671 812 699 567 304 412 549 311 374 364 602 2017 2252 2497 2296 2301 1850 1564 1588 1875 1611 1029 1088 1096 1053 859 854 1031 1017 966 872 827
881 651 818 709 585 467 539 561 425 546 513 462 499 584 666 513 619 795 552 473 485 394 350 1887 2282 2224 2144 1707 1659 1790 1768 1733 1289 776 1027 996 1067 964 844 908 1024 943 890
783 673 463 662 594 458 510 436 430 499 407 427 539 689 736 499 420 567 630 622 591 559 582 725 1693 1764 2213 1964 1397 1926 1193 340 1319 1065 784 778 789 941 859 887 905 1021 928
766 763 461 358 528 496 302 447 460 271 237 336 429 386 423 515 683 468 392 649 520 447 588 600 497 972 1215 1919 1243 1357 1821 1000 876 1195 1064 901 674 885 913 954 780 866 865
319 266 281 174 264 440 372 311 408 373 247 252 251 190 197 293 232 266 584 514 514 547 563 512 491 578 649 638 548 1160 806 1321 1283 1448 1395 1038 914 705 552 624 441 634 780
103 100 122 108 108 333 421 284 309 334 264 331 232 91 80 70 175 324 508 621 480 436 530 545 446 311 380 411 508 548 691 944 1226 1849 1610 1258 758 587 645 514 527 404 521
77 96 104 114 121 205 370 358 352 304 201 259 300 333 180 167 70 20 75 308 474 457 363 379 483 363 297 258 321 376 487 678 899 1783 1715 1668 1143 689 587 541 559 465 438
30 36 118 98 120 225 299 339 335 299 208 154 209 232 229 174 102 55 26 16 212 501 538 481 406 325 244 198 171 292 606 523 652 943 1208 1264 1202 798 666 604 746 554 455
26 19 106 198 164 285 312 363 400 281 230 203 111 46 85 123 100 64 52 44 44 48 252 320 332 367 276 309 389 491 674 570 527 497 513 477 598 511 555 434 638 742 594
87 84 236 231 213 290 307 376 386 371 231 160 99 44 73 109 94 53 51 50 44 79 238 258 268 267 240 271 342 820 764 562 497 395 384 412 379 569 917 705 734 1256 885
30 92 163 174 156 243 351 363 351 409 307 159 117 47 79 103 105 117 84 68 47 56 142 168 190 261 240 248 292 326 395 289 367 357 265 270 265 318 368 346 409 466 417
70 69 116 166 198 254 350 323 266 212 232 158 145 78 106 119 130 125 104 74 76 43 28 127 123 199 230 168 194 210 276 189 158 182 276 301 261 245 278 332 306 278 364
118 182 166 199 231 270 225 170 104 156 146 110 69 70 132 100 66 71 49 48 41 56 55 77 133 167 155 328 262 237 186 90 142 166 223 217 257 422 480 524 636 520 398
80 132 158 136 84 78 81 83 82 118 94 60 78 79 100 134 66 54 45 19 42 49 52 64 117 148 164 202 92 77 66 55 72 165 111 233 272 365 370 347 206 57 1
29 76 71 54 67 89 105 115 74 65 51 50 66 72 76 76 9 37 33 18 50 44 45 60 80 107 114 62 31 19 39 134 103 70 105 178 209 188 123 109 128 139 128
39 39 41 33 41 42 44 48 41 43 57 45 38 49 32 39 47 35 31 33 47 18 17 63 81 67 53 66 46 16 46 89 59 64 129 148 137 132 129 112 100 133 146
62 23 3 4 22 27 13 14 12 13 6 26 58 61 32 24 34 36 28 19 27 15 10 4 15 51 51 33 42 13 16 57 90 106 121 105 92 87 80 73 89 89 73
38 8 0 0 0 0 1 2 10 14 19 15 22 44 39 18 20 21 18 14 2 2 4 30 39 42 16 24 43 16 26 41 67 79 88 110 83 74 72 60 61 63 63
0 0 0 0 0 0 0 0 0 0 1 5 15 11 27 11 2 14 13 8 15 16 23 18 36 13 13 38 54 37 56 60 56 53 56 71 55 58 58 66 70 70 59
0 0 0 0 0 0 1 0 0 0 3 8 17 13 17 32 46 36 32 29 30 28 25 23 10 6 34 47 45 45 44 68 68 54 40 33 26 14 17 31 46 37 7
1 1 0 0 0 0 1 3 0 0 0 0 2 14 11 20 5 0 0 0 0 2 26 40 46 47 44 57 68 63 55 58 67 54 27 16 12 23 41 32 11 0 0
0 0 0 0 0 0 5 4 0 0 0 0 0 0 0 0 0 3 16 8 8 2 11 5 3 8 5 4 13 15 29 19 4 7 5 3 1 1 1 0 0 0 0
0 0 0 1 1 4 2 2 0 0 0 0 2 0 2 14 4 5 14 7 16 17 29 57 7 9 10 17 19 15 15 16 15 27 10 2 3 7 8 7 1 19 13

GFSMA_con_mucape_009.txt.gz
CAPE
1577 1670 1433 1375 1196 1244 1156 1149 1179 1078 1063 973 993 658 596 438 351 418 384 1147 1868 1868 2080 1979 1653 1474 1470 1645 1366 898 914 723 679 602 541 644 604 624 503 315 158 217 220
1273 1198 1137 1026 1028 1099 1089 1130 969 990 808 784 919 827 495 463 399 381 383 363 1665 1637 2181 2250 1841 1543 1355 1401 1548 1296 1092 884 934 878 947 708 807 772 537 525 317 231 257
621 853 785 812 819 826 809 819 779 637 714 660 617 706 595 419 393 392 289 183 539 1508 2072 1999 2388 2038 1925 1439 1344 1642 1604 1433 1394 1210 1125 1018 811 974 726 907 548 383 475
454 392 357 371 456 541 652 536 615 546 524 500 532 609 639 491 392 356 322 274 234 312 912 1835 2055 2214 1995 1613 1451 1483 1813 1580 1487 1267 1319 1153 912 772 730 1033 997 631 562
518 717 565 365 704 552 494 466 373 431 433 461 455 457 556 454 286 502 369 255 255 261 270 997 1576 2062 1857 1719 1770 2051 2028 1868 1651 1393 1348 1178 1173 916 753 735 911 913 686
524 805 661 614 591 522 410 380 439 335 372 348 381 711 531 494 310 450 430 378 294 313 291 393 546 1065 1795 2243 1921 1854 2178 2280 1937 1320 1067 677 709 676 812 651 715 774 764
587 521 518 415 412 385 388 447 419 275 333 281 335 325 446 589 487 483 547 525 518 455 373 388 368 994 1260 1822 1549 1765 2080 2384 1164 1021 1259 689 550 525 545 872 754 700 692
395 421 291 252 311 211 270 376 346 224 142 214 242 219 221 335 449 403 412 512 656 546 508 521 476 411 534 495 785 1355 1545 1198 1189 794 1026 992 749 607 376 651 613 413 505
164 140 162 135 166 167 142 282 279 309 185 121 174 100 97 78 176 230 269 488 478 568 529 411 368 364 331 431 540 550 854 789 924 1119 725 1225 907 489 495 457 419 254 380
9 75 81 124 122 106 115 198 329 248 206 149 155 156 128 83 49 145 277 441 633 510 436 435 453 449 363 254 362 479 472 364 492 592 828 1329 999 596 455 366 440 430 298
0 10 77 99 134 120 89 199 281 304 181 90 90 202 160 184 100 43 15 12 198 348 403 371 334 289 339 286 194 218 461 289 264 582 847 883 1063 755 698 604 763 904 754
0 31 22 100 127 119 107 153 289 330 295 219 98 120 128 122 117 86 61 23 2 6 129 331 407 384 296 322 222 301 359 400 264 321 411 563 470 623 830 343 306 381 493
9 0 38 100 163 157 128 179 277 330 340 210 129 128 97 80 101 83 54 30 17 53 150 191 230 235 221 255 226 580 604 329 234 253 278 315 270 396 464 491 513 448 438
0 1 97 164 158 170 189 241 285 306 282 253 173 137 90 53 76 74 45 53 39 20 23 112 109 159 167 189 170 264 263 193 173 239 213 203 144 200 254 349 410 403 550
58 34 22 50 82 140 207 229 264 220 226 233 196 140 91 44 61 85 92 85 50 23 25 30 49 82 129 168 122 134 131 151 118 100 96 85 128 156 156 175 231 221 152
36 80 79 144 176 203 248 264 251 267 612 144 150 151 128 72 100 113 93 69 36 18 22 34 42 64 117 154 129 125 209 81 60 94 76 69 92 119 146 189 250 211 145
43 45 64 74 57 74 180 154 115 79 102 94 99 75 66 95 104 100 88 51 26 22 34 28 27 60 92 100 82 69 51 10 2 8 94 74 93 201 228 232 225 190 121
62 42 52 61 61 48 49 64 67 92 94 67 54 59 56 44 68 69 55 62 36 31 27 25 8 54 58 58 46 29 23 26 19 17 21 56 107 144 177 151 69 15 0
28 47 47 46 59 55 50 73 63 52 53 48 56 54 47 77 91 69 59 34 43 40 16 46 42 40 38 35 15 33 21 20 6 6 42 56 54 98 106 87 99 103 97
0 0 0 18 19 21 19 14 18 13 9 15 22 57 26 26 30 39 44 49 38 43 30 9 8 13 9 18 22 20 7 11 30 1 11 73 93 110 131 112 91 82 89
0 0 0 0 0 0 1 0 5 12 13 9 22 54 39 18 5 6 26 41 11 4 9 11 4 2 23 21 32 18 18 10 38 44 61 94 109 102 107 91 76 69 60
0 0 0 0 0 0 0 0 0 1 7 12 30 26 8 3 3 3 3 2 7 2 1 0 13 26 11 19 21 53 22 37 37 30 75 60 55 77 71 56 62 53 44
0 0 0 0 0 0 0 0 0 0 6 9 4 8 22 14 4 27 31 11 16 13 19 17 0 8 13 3 17 6 32 39 42 55 55 59 50 65 63 51 21 31 31
0 0 0 0 0 0 1 2 0 0 0 0 1 13 14 17 3 13 5 0 0 10 24 42 39 46 29 34 41 43 70 63 50 53 59 15 16 23 39 45 49 56 66
0 0 0 2 5 3 0 0 0 0 0 0 0 0 0 0 0 0 1 0 1 0 0 7 10 29 26 7 21 11 4 7 16 24 18 5 19 24 13 4 1 0 0
10 0 0 0 0 5 0 0 0 0 0 0 0 0 0 0 0 0 0 2 0 8 14 17 23 22 22 21 7 8 17 10 6 2 2 1 1 1 0 0 0 0 5

GFSMA_con_mucape_015.txt.gz
CAPE
499 2866 2342 2350 2222 2261 2263 2300 2261 2281 2066 1991 1848 1667 1368 1323 1251 750 743 1549 1837 1893 2218 1877 1402 1506 1396 1418 1334 1257 1055 852 721 644 621 567 566 412 238 312 214 177 109
949 2373 2366 2519 2427 2351 2057 2042 1875 1907 2131 1931 1598 1646 1659 1550 1330 947 493 1053 1883 1848 2047 2261 1435 1838 1389 1423 1403 1330 1328 1039 1057 1199 1134 993 751 832 524 324 275 197 140
2148 2018 2280 1905 2006 2641 2160 2067 2001 1991 1894 1879 1764 1591 1579 1587 1475 1109 736 872 1123 1405 1670 1314 1506 1551 1830 1643 1765 1666 1561 1429 1235 1213 1094 899 1069 788 646 831 461 266 353
1593 1793 2177 1476 1630 2096 2197 1858 1888 1591 1457 1480 1695 2144 2069 1611 1609 1443 981 732 1112 926 1187 1680 1256 1264 1107 1597 1662 1584 1561 1370 1254 1224 1144 1041 901 754 845 892 965 766 562
1739 1629 1309 1734 1733 1496 1496 1425 1770 1679 1322 1148 1222 1614 1804 1783 1821 1545 1375 917 941 1064 877 1270 1112 1113 946 997 1634 1891 1748 1604 1355 1419 1171 1160 1167 940 325 833 1017 937 776
1319 1672 1259 1297 1432 1040 1206 1268 1258 1150 1293 1075 787 887 1769 1300 1799 1518 1470 1049 906 1139 1212 1127 1121 826 1079 988 1698 2079 1926 1858 1467 1430 1115 1313 1131 914 521 426 737 835 871
1427 1562 1403 1329 1132 996 1280 1481 1773 1271 1154 1148 902 787 1196 1172 1291 1490 1476 1063 1157 1177 1300 1317 991 992 944 1106 1225 1747 2022 1934 1693 1029 805 949 1052 650 580 373 225 451 564
788 989 1062 1351 1272 1227 1067 1397 1351 1385 965 1136 662 931 735 1025 1085 1249 1343 1413 1434 1400 1288 1353 1287 1402 1313 1318 1071 1321 1693 2048 1902 1202 724 525 478 287 287 264 260 241 290
528 682 561 792 1422 496 439 605 1337 883 1071 1006 1089 1171 832 310 1107 1215 1577 1499 1492 1620 1461 1658 1575 1341 1490 1520 1469 1286 1413 1211 1557 1346 1086 382 259 174 239 281 281 242 205
179 316 691 647 803 701 199 281 1209 1551 1776 938 877 812 554 342 1178 1027 983 1329 1451 1646 1629 1744 1525 1448 1752 1689 1605 1329 761 525 626 866 910 842 207 117 276 247 341 303 237
209 240 368 710 988 913 631 149 385 1436 1278 1624 891 771 946 1038 548 301 454 690 908 1106 1273 1632 1477 1536 1635 1630 1421 1704 847 550 423 468 469 734 373 265 350 375 457 636 579
235 471 413 607 814 961 1053 1100 978 1110 1148 1149 1086 826 676 849 1318 1118 715 599 401 394 556 886 1170 1040 1042 1101 1211 880 733 479 253 212 222 359 445 616 501 552 761 662 657
254 373 447 583 670 884 942 1023 1041 1042 1018 1042 1165 911 766 519 1329 1303 1432 296 323 352 345 490 605 895 905 1051 1128 766 946 394 220 159 144 121 141 259 491 463 489 586 743
440 559 540 498 483 466 524 599 893 1243 1014 1077 1075 1078 835 861 465 450 975 592 956 490 353 428 463 543 704 897 927 407 937 308 179 145 129 145 141 143 145 157 219 237 244
381 538 528 634 683 815 830 860 961 924 938 1024 1001 1003 875 520 143 360 442 636 787 237 394 392 419 426 403 529 553 757 812 337 104 88 108 166 112 103 81 97 78 126 96
51 324 326 502 562 694 910 754 717 594 663 568 678 619 787 685 552 317 395 525 488 1081 621 281 230 164 197 111 127 250 140 121 88 50 63 56 43 77 66 52 46 45 96
196 117 36 64 147 430 623 498 325 586 387 479 373 356 516 538 648 602 619 581 496 360 295 169 83 49 40 57 65 61 58 50 32 15 28 45 49 25 22 33 43 60 64
85 120 45 41 117 52 206 426 254 389 520 394 220 425 413 466 537 615 551 338 73 58 62 10 45 17 33 47 31 40 62 55 45 32 27 18 24 18 30 52 63 47 26
65 46 35 19 36 61 62 117 143 41 53 112 230 164 126 156 88 121 110 93 63 67 89 65 37 7 30 60 52 13 16 6 7 6 15 19 39 35 39 42 19 5 11
32 24 25 10 4 0 4 18 30 29 34 26 33 44 49 35 36 60 51 54 49 35 30 48 45 40 43 6 16 18 11 13 13 0 0 8 61 52 4 3 14 36 44
10 10 14 10 5 0 1 2 0 4 6 17 14 18 27 15 25 20 24 18 9 16 16 14 12 12 12 18 27 21 10 3 14 11 2 4 0 15 1 1 2 2 4
8 10 0 0 0 0 1 2 2 3 7 7 1 7 13 1 0 0 0 0 0 1 9 9 4 1 4 14 19 8 0 0 1 9 6 3 3 3 24 13 21 3 1
0 0 0 0 0 0 0 0 0 1 2 5 6 5 3 2 9 7 15 12 1 0 0 0 1 9 5 3 2 10 1 6 4 3 3 1 3 5 1 5 11 8 9
0 0 0 0 0 0 0 0 0 0 0 0 0 0 0 0 0 0 0 0 0 0 0 0 0 0 10 21 11 14 2 3 0 5 3 0 0 1 0 0 6 14 5
0 0 2 0 0 0 0 0 0 0 0 0 0 0 0 0 0 0 0 0 0 0 0 0 0 0 0 0 0 12 11 7 3 0 0 6 6 2 6 2 4 1 0
12 9 1 0 0 0 0 0 0 0 0 0 0 0 0 0 0 0 0 0 0 0 0 0 0 0 0 0 0 0 0 0 2 1 5 1 14 15 10 9 5 1 1

GFSMA_con_mucape_021.txt.gz
CAPE
1877 634 158 158 814 1601 1644 1591 1176 1687 1773 1696 1597 1509 1318 1144 1077 823 887 2174 2003 1746 1899 1878 1728 1317 970 1592 1412 1280 1180 1080 967 781 715 684 770 634 427 301 212 319 256
1402 671 345 151 358 971 1512 699 1556 2042 1177 1426 1699 1400 1609 1862 1450 1327 813 1117 2194 1795 1771 1757 1857 1434 657 1390 1459 1304 1421 1173 1312 1166 1240 1180 1093 987 767 593 395 363 378
1622 1297 866 751 314 303 178 190 713 1717 1669 1915 1296 1755 1327 1829 1689 1444 1532 1362 1420 1886 1928 1807 2147 1895 1493 891 1367 1269 1577 1429 1404 1375 1308 1319 1172 1039 948 805 723 683 639
2239 2026 1590 1191 812 101 0 44 1207 920 1724 1675 1956 1709 1652 1461 1434 1736 2192 1412 812 840 1714 1701 1700 1768 281 170 653 929 1259 1387 1287 1277 1422 1203 1334 1188 1041 897 855 746 775
1648 1883 1289 1499 1495 716 689 1759 1403 1489 1528 1231 1297 1719 1691 1831 1266 1264 1548 1558 1492 1444 1195 1462 1133 1123 404 455 297 110 493 1369 1232 1198 1594 956 1151 987 887 900 762 780 815
1861 2532 2432 1604 3073 2000 1325 1484 1669 1535 983 814 475 881 1779 1346 1387 1310 1521 2125 2251 1613 1362 2227 1650 569 798 706 560 480 446 628 1482 1294 1360 1197 1046 801 451 347 368 463 554
1784 2364 2600 2464 2518 2281 2146 2581 2020 2213 1033 963 1571 931 622 848 1618 1554 1399 1249 1812 1700 1187 2382 1589 1461 823 989 953 1089 837 760 1532 1775 1356 959 1033 1007 697 662 321 291 334
1552 1817 2302 2099 2331 2233 2354 2381 2293 2191 1949 2213 1049 612 388 135 658 1333 1404 2353 1731 2391 1667 2008 1790 1721 1068 669 639 1116 1358 1331 1127 1900 1645 1044 618 284 339 399 326 268 280
922 1262 1298 1966 1918 2487 2407 1777 1970 1571 1740 2103 1681 652 235 86 107 1916 2087 1462 1919 2804 2047 2164 1396 1894 1776 874 966 1377 1373 1035 1303 1573 1665 1379 527 264 217 127 153 285 227
661 872 1115 874 1736 2260 1875 1929 2178 1583 1807 1722 1937 1109 1625 994 660 573 2104 2200 2572 2441 2354 1238 755 1064 2123 1674 1769 1484 1306 1115 1097 1394 1413 884 863 684 384 287 306 264 191
917 969 738 771 1061 1872 1926 1619 1884 2129 1974 1883 1595 1998 1536 465 786 750 1043 867 1477 1287 2037 1549 1208 1537 1916 1970 1191 1193 1422 1187 921 991 1027 982 1079 561 438 410 442 227 89
800 972 900 1012 1526 1271 1303 1996 1859 1616 1885 844 1395 1718 1761 1079 545 814 1435 997 322 725 992 699 1434 1556 1672 1080 985 2399 1808 937 875 742 661 625 653 738 676 722 659 332 239
780 1450 1049 1071 1025 1127 1161 1569 1625 1375 1556 894 1161 1316 1855 770 2070 1537 1976 437 322 903 949 366 1265 2008 831 974 1021 1248 1150 716 613 439 323 221 213 300 386 676 728 645 572
1184 1090 1149 890 1144 699 935 1116 961 1072 1390 1109 1022 1339 1523 1233 586 896 1703 2030 1108 342 344 488 1069 1684 1579 1053 809 1110 844 523 480 289 178 146 111 99 117 144 239 240 277
976 970 1126 1108 970 883 991 1170 1570 1236 1706 1724 1442 1190 1727 1501 683 572 830 1429 1597 293 354 463 1182 946 635 397 206 257 302 250 230 109 101 84 86 103 106 83 93 118 122
910 959 577 782 1037 1069 1038 1271 1674 1474 1294 1386 1432 1276 1543 2168 1890 2149 1242 740 1415 847 257 523 584 452 225 84 42 51 87 48 56 52 39 40 47 68 62 95 67 53 63
813 699 533 370 468 868 1240 1382 983 872 975 870 751 715 741 1044 1581 2369 2505 1991 1362 1570 1020 567 403 456 87 36 38 21 26 19 35 46 51 39 48 78 71 62 50 47 57
818 624 625 420 452 338 388 434 211 371 421 353 729 433 440 695 893 1143 1369 1207 1102 1034 834 558 342 57 26 33 10 18 14 34 33 4 8 4 13 4 16 6 30 25 21
232 392 242 382 306 221 69 42 20 0 0 9 50 250 171 115 153 107 99 105 140 323 216 145 89 23 29 26 21 28 24 1 4 12 0 0 2 2 3 24 17 4 10
285 208 195 114 161 50 28 18 18 0 0 0 0 0 0 0 4 4 12 9 33 23 4 4 12 13 18 15 7 10 4 2 0 1 0 0 0 8 19 23 13 8 0
66 24 51 26 12 11 4 19 8 4 0 0 0 10 10 11 4 1 0 1 9 9 15 12 6 2 11 6 3 6 1 2 5 1 1 2 0 0 8 16 10 6 0
13 8 9 12 8 0 0 0 7 15 7 0 0 0 0 0 0 0 1 1 3 2 7 15 9 0 0 3 11 7 7 7 5 0 0 0 0 0 0 0 0 0 0
7 9 11 13 9 0 0 0 1 7 7 0 0 0 0 0 2 0 1 1 1 3 0 2 0 0 4 8 4 0 0 1 2 1 0 5 0 0 0 0 0 0 0
3 3 9 6 5 0 0 0 0 14 3 4 2 0 2 0 0 0 0 0 0 0 0 0 0 0 1 3 12 10 0 2 2 1 5 0 0 0 2 3 3 0 0
11 25 11 13 10 0 0 0 0 0 0 0 0 0 0 0 0 0 0 0 0 0 0 0 0 0 0 0 0 0 0 0 0 0 0 0 0 0 0 0 0 0 0
15 3 3 2 1 1 0 0 0 0 0 0 0 0 0 0 0 0 0 0 0 0 0 0 0 0 0 0 0 0 0 0 55 14 5 15 18 17 14 13 9 11 0

GFSMA_con_mucape_024.txt.gz
CAPE
2667 2780 1771 892 908 2021 1000 593 557 241 463 1173 1639 1539 1113 943 1161 1255 1233 1747 1411 1701 2069 1988 1860 1386 1223 1616 1980 1358 1102 894 1043 1188 752 716 882 740 596 240 375 312 343
2793 2362 1428 1023 656 1013 1139 416 274 113 81 325 1489 1608 1817 1703 1563 1206 887 1279 1612 1788 2048 2410 2274 1642 873 491 1678 1674 1393 1098 1526 1431 1325 1229 1165 887 822 664 396 523 700
2606 2197 1330 813 1018 1021 418 21 77 0 0 320 922 1513 1781 1695 1673 1975 1584 1370 1569 1890 1597 2032 2416 2235 2019 795 1469 1586 1632 1530 1622 1544 1260 1161 1258 1119 993 801 819 667 739
2714 2541 1885 2039 1721 982 147 3 0 1 106 283 355 1012 1189 1464 1547 1907 2088 1630 1614 1051 1432 1789 1741 1791 2052 1327 1303 1109 1703 1254 1397 1473 1434 1249 1273 1268 1172 1038 901 853 720
2281 2233 1840 1864 1884 1333 433 116 45 97 412 692 1014 583 768 1150 1487 1537 1747 1663 1450 1124 1364 1270 1578 1339 1832 1041 205 665 392 730 1135 1360 1422 1395 1097 954 723 991 934 733 799
2125 1959 2093 1924 1172 2121 1520 1038 1127 788 721 454 787 492 1390 1313 1571 1717 1598 1869 1894 1784 1106 1032 670 645 1368 1062 821 517 431 364 720 1511 1421 1327 1323 1033 747 609 605 417 565
1669 1838 1954 1672 1735 1507 1612 1479 928 398 209 392 764 1377 1694 1763 1188 1083 1867 1413 1442 1386 1469 845 1131 438 619 844 746 950 946 633 682 1013 1610 1284 1268 926 953 478 495 403 291
1837 2247 1772 1309 1142 957 841 1172 981 632 650 1064 796 1134 725 464 561 1346 1441 1516 1377 1493 1583 1581 1206 466 343 217 211 920 1094 1090 1320 1345 1429 1242 1103 811 857 696 382 307 360
1500 1416 1472 1638 1261 1265 1007 872 862 694 577 510 1171 763 700 197 602 1250 1201 1460 1388 1809 1777 1748 1255 686 587 584 457 725 1067 743 1161 1545 1394 1187 853 591 579 284 201 106 216
1579 1245 1444 1489 1330 1284 1197 1016 1018 1013 936 866 982 758 706 918 589 247 712 1190 1451 1973 1767 1496 1279 881 952 870 850 711 691 840 1030 1239 1282 1218 1123 858 538 286 248 171 77
1374 857 1106 1267 1294 1322 1233 1050 914 797 889 667 885 485 539 812 1117 718 642 981 1724 1481 1314 1168 962 597 439 602 1053 862 752 977 916 1033 1224 1215 1213 969 888 685 548 526 385
1568 1260 1387 1249 1304 1150 1191 962 1099 1183 537 577 877 683 481 419 466 563 625 802 543 703 698 786 851 319 396 557 261 340 408 606 774 916 732 803 818 903 924 933 812 678 674
1046 1266 1393 1362 1150 1143 1210 1290 1088 961 701 657 828 834 279 459 470 470 784 717 387 652 485 370 257 471 398 329 477 192 326 323 366 455 439 377 293 208 239 460 604 748 880
1313 1318 1283 1275 1131 1179 1137 1367 1665 1761 1659 1320 1172 1149 915 835 867 612 448 351 526 438 554 314 746 413 364 293 195 113 152 177 185 132 229 185 158 124 88 69 86 108 290
928 1002 813 1048 1071 1326 1466 1544 1129 1006 1491 1228 1481 1423 1305 787 832 641 765 795 824 362 226 576 938 252 98 78 59 35 22 24 22 22 21 52 41 57 69 64 50 78 95
1074 858 484 642 905 1033 1363 1501 1032 673 654 611 820 1140 553 455 855 890 619 575 964 537 244 421 332 94 57 42 31 23 1 1 5 24 26 22 18 18 23 36 29 46 51
811 533 413 370 231 325 827 941 579 865 781 782 700 697 725 703 726 640 1222 848 492 351 459 298 148 61 30 2 9 4 0 4 24 17 15 24 24 20 36 30 39 31 24
594 325 212 512 530 197 34 44 53 57 58 43 74 159 299 381 416 462 750 696 641 504 406 253 126 72 47 8 1 0 0 3 0 0 3 1 1 0 3 0 0 0 0
400 212 146 335 47 11 26 15 15 0 0 1 0 0 9 6 20 317 17 108 143 160 153 114 70 34 19 8 3 6 1 0 0 0 0 1 9 0 0 0 1 1 0
367 284 112 71 61 27 5 7 4 0 0 0 0 0 0 0 0 2 9 5 5 6 0 7 30 27 14 9 7 0 0 0 1 0 1 0 0 0 4 9 5 8 3
15 91 105 39 14 1 2 5 5 3 0 0 0 0 0 0 0 1 4 1 5 0 0 13 8 19 18 7 0 0 0 0 4 2 9 12 4 0 0 10 5 8 0
5 173 34 6 0 0 0 1 4 6 3 4 2 0 0 0 0 0 0 0 0 28 4 2 2 7 0 0 2 5 4 0 0 0 2 0 0 7 0 0 0 0 0
19 57 27 10 0 0 0 1 0 7 12 12 16 16 0 0 0 0 0 0 0 0 0 1 0 0 0 3 6 5 0 1 0 1 0 0 0 0 0 0 0 0 0
59 1 19 12 0 0 0 0 0 14 0 0 0 3 0 0 0 0 0 0 0 0 0 0 0 0 0 0 0 1 2 0 1 0 0 2 1 0 0 0 0 0 0
34 3 19 21 0 0 0 0 0 0 0 0 0 0 0 0 0 0 0 0 0 0 0 0 0 0 0 0 0 1 0 0 0 0 0 0 0 0 0 0 0 0 0
17 25 0 0 0 0 5 0 3 1 0 0 0 0 0 0 0 0 15 0 0 0 0 0 0 0 0 0 0 0 0 0 8 3 11 16 1 3 1 0 0 0 0

GFSMA_con_mucape_027.txt.gz
CAPE
1041 1130 883 827 511 1204 1005 926 947 810 641 271 352 377 653 919 625 708 683 1598 1405 1459 2500 2211 1816 1284 1696 1814 1863 1213 723 825 568 644 517 370 789 534 173 77 178 350 197
899 1335 758 401 295 430 634 518 299 338 192 49 295 311 322 485 458 492 781 930 1818 1518 2048 2310 1883 1824 1238 1919 2021 1889 1300 933 1029 1299 1161 1109 1078 1032 642 571 176 319 408
1051 1209 1017 667 363 281 578 440 147 0 1 0 22 142 183 526 766 909 526 684 1141 1574 1629 1805 2227 2370 2003 1056 1454 1809 1965 1631 1425 1509 1417 1242 1228 1217 1017 930 858 749 613
1194 1260 1011 907 714 512 425 245 36 3 0 0 7 21 136 356 918 1104 942 639 850 777 1546 1777 1654 2120 2218 1822 863 1735 1775 1639 1535 1521 1424 1353 1220 1211 1084 1021 965 885 831
949 1058 1088 1116 863 693 565 342 119 38 6 5 7 40 231 494 706 1150 1037 1201 798 917 737 988 1473 1430 1773 1661 1521 1868 2058 1547 1239 1292 1385 1519 1279 1083 1067 1062 911 969 857
135 645 893 1051 933 543 546 413 128 138 51 165 548 599 452 346 293 684 1058 1123 900 804 937 838 792 909 1760 1825 1892 1837 1483 1272 1209 1194 1364 1446 1474 1132 979 855 830 712 747
91 267 837 647 602 404 424 302 288 297 193 251 264 157 336 387 512 670 950 1066 1082 956 1025 921 833 665 693 1517 1432 1002 1241 856 820 781 1078 1385 1175 1185 1116 729 422 516 465
612 720 847 695 496 230 162 299 323 139 142 114 82 2 14 225 571 845 728 970 1151 1273 1133 1116 933 713 545 619 752 1038 1085 1216 1016 1054 1116 921 1349 1223 1152 914 608 394 334
895 721 316 275 315 231 253 237 215 171 169 148 131 169 92 51 154 529 722 855 846 1045 1244 1334 1081 820 634 466 337 368 817 795 1062 1231 1492 1241 1015 1015 999 823 726 483 348
870 577 304 412 479 414 386 385 341 231 210 190 194 311 413 384 85 169 632 556 737 896 1162 1234 1092 873 601 433 598 452 423 267 539 815 946 1262 1042 862 819 821 627 423 206
356 263 415 516 440 491 447 457 421 239 227 167 129 172 191 294 328 212 75 179 658 985 972 916 970 742 619 425 334 286 329 307 195 365 600 879 979 1041 1101 1121 1002 788 537
471 451 538 536 525 490 303 495 437 339 196 271 182 190 193 113 86 226 178 89 137 260 472 643 735 416 294 132 491 164 53 32 134 128 221 380 457 769 1391 1348 1227 1153 1023
514 503 585 612 436 543 447 427 372 293 217 224 186 213 243 152 121 125 123 75 174 195 262 204 433 328 338 271 131 72 107 40 80 68 198 401 358 387 385 405 429 574 699
385 202 304 477 539 657 670 439 493 318 206 242 243 307 237 216 252 162 114 77 114 131 170 170 150 122 161 84 142 123 103 142 100 76 111 129 156 170 170 132 87 68 80
226 39 74 162 335 483 515 281 358 428 427 377 281 224 185 136 416 264 243 237 102 45 116 110 121 58 15 12 5 24 34 30 40 41 37 29 32 57 74 65 45 26 43
178 114 105 53 69 169 177 234 205 210 186 194 249 310 391 413 347 190 179 165 193 152 134 119 107 61 43 32 13 29 25 19 3 13 23 15 36 52 55 54 41 30 13
6 138 156 27 4 0 0 0 0 0 1 4 7 53 72 176 127 139 156 167 217 212 160 476 121 78 91 78 74 43 20 11 2 0 5 3 6 37 56 43 37 32 10
8 6 11 7 1 4 0 0 0 0 0 0 1 3 1 1 2 46 58 80 142 214 153 108 107 129 71 47 26 22 4 2 0 0 3 19 0 2 0 0 3 0 0
1 5 2 0 0 1 1 0 0 0 0 0 0 0 0 0 0 2 0 2 13 51 63 77 55 64 31 27 37 24 15 0 0 0 0 0 3 0 0 0 12 12 7
1 1 0 0 0 0 4 1 0 0 0 0 0 0 0 0 0 0 0 0 0 0 2 7 8 64 42 41 36 21 11 7 3 2 0 0 0 3 0 1 7 1 6
1 5 0 0 0 0 4 0 0 0 0 0 0 0 0 0 0 0 0 0 0 0 0 0 2 6 13 17 18 6 0 5 9 2 0 0 0 0 0 7 11 10 1
20 0 0 0 0 0 2 3 3 1 1 0 0 0 0 0 0 0 0 0 0 0 0 0 4 11 0 0 1 5 7 2 0 0 0 0 0 0 0 0 0 0 0
13 0 0 0 0 0 1 3 4 0 0 0 0 0 0 0 0 0 0 0 0 0 0 1 0 1 1 5 3 6 5 4 0 0 0 0 0 0 0 0 0 0 0
51 10 4 0 0 0 0 0 0 0 0 0 0 0 0 0 0 0 0 0 0 0 0 0 0 0 0 0 0 0 0 0 0 0 0 0 0 0 0 0 0 0 0
33 9 7 2 0 0 0 0 0 0 0 0 0 0 0 0 0 0 0 0 0 0 0 0 0 0 0 0 0 0 0 0 0 0 0 0 0 0 0 0 0 0 0
7 16 41 2 0 1 0 0 0 0 0 0 0 0 0 0 0 0 0 0 0 0 0 0 0 0 0 0 0 0 0 0 2 0 0 0 0 0 0 0 0 0 0

GFSMA_con_mucape_030.txt.gz
CAPE
378 796 963 822 947 903 1132 997 1218 1111 942 666 465 352 375 446 442 435 611 803 1300 1413 2267 2162 1816 1365 1112 1626 1454 1081 488 475 537 402 609 746 609 226 137 76 292 183 187
568 708 683 404 352 767 860 853 797 864 829 481 123 339 318 320 387 417 529 670 1457 1597 1708 2346 2438 2015 1506 1645 1738 1823 911 827 1037 1045 1059 892 1006 1082 545 183 55 337 459
787 779 556 331 378 249 243 188 193 99 38 257 200 108 278 182 473 602 384 608 676 1648 1521 1747 2449 2306 1807 1562 1727 2320 1883 1677 1413 1450 1394 1255 976 1105 1105 856 599 611 845
631 935 704 716 586 489 301 258 209 128 1 4 0 5 79 87 249 496 658 574 608 719 1211 1727 1804 1751 2276 1823 1583 1789 2203 1943 1643 1409 1549 1473 1200 1050 1132 992 1036 895 824
959 929 784 1003 741 635 477 257 190 86 62 31 8 1 10 172 373 607 821 732 568 824 677 1201 1620 1408 1731 1547 1763 1235 1751 1796 1741 1718 1694 1596 1568 1301 1030 1027 1070 974 929
352 742 618 627 435 405 360 324 277 109 116 118 266 538 225 214 233 256 581 710 733 656 745 709 730 838 1471 1598 1816 1454 1434 1930 1695 1704 1400 1354 1503 1444 1052 937 809 915 961
197 75 161 646 566 500 303 283 283 77 50 75 68 57 118 138 179 236 212 447 788 732 716 781 753 673 628 1149 970 1349 1446 1947 1700 1093 733 897 1097 1031 937 1037 890 806 580
546 572 667 491 243 295 189 69 63 131 122 133 54 49 50 49 50 242 285 427 682 787 783 792 877 938 781 611 808 901 1094 1148 780 896 684 351 297 1066 1228 929 894 672 486
638 601 328 160 81 152 156 121 101 57 79 71 108 14 9 4 37 108 320 502 670 653 717 836 852 833 796 655 524 533 709 452 568 665 895 825 568 350 609 857 904 653 453
384 410 208 296 215 196 231 214 212 207 123 86 11 79 29 26 38 53 141 466 597 584 591 566 674 758 807 674 544 416 300 268 227 148 237 524 765 648 414 440 470 494 323
179 222 268 220 159 202 237 164 247 277 144 118 69 80 111 163 108 68 53 99 345 384 529 681 770 691 712 550 320 206 111 32 100 103 71 110 413 560 589 1091 1155 1033 942
54 59 160 203 246 366 345 314 263 333 182 115 109 94 88 56 63 90 68 73 61 178 317 268 398 444 284 212 205 94 29 1 8 10 24 52 227 458 434 332 554 1279 1116
0 0 108 196 409 502 434 229 250 153 107 125 153 154 153 107 67 72 51 41 40 117 209 401 200 230 332 136 95 27 8 3 0 8 16 36 42 95 169 211 345 387 520
0 0 36 240 293 377 443 387 232 200 113 110 102 131 163 150 104 65 72 45 55 126 130 126 408 274 280 76 86 21 18 14 8 4 29 29 35 60 75 74 93 89 72
6 15 18 42 84 189 192 174 245 284 149 195 199 118 100 17 58 196 157 113 81 59 57 277 33 223 49 85 69 25 27 38 31 15 6 17 24 22 31 40 54 60 49
0 121 10 1 0 33 47 35 29 38 54 96 171 144 181 239 258 260 178 184 110 82 98 145 24 33 26 2 0 2 0 0 0 3 3 9 11 28 52 63 75 58 54
1 26 11 0 0 0 0 0 0 0 0 0 6 10 10 34 39 72 95 84 96 101 71 60 48 23 11 56 37 4 0 21 2 2 11 41 19 32 54 72 39 8 3
0 1 0 0 0 0 0 1 0 0 0 0 0 0 0 0 2 7 15 22 38 51 35 37 16 73 22 51 29 39 31 13 2 5 2 28 13 0 0 0 0 0 0
0 0 0 0 0 0 0 0 0 0 0 0 0 0 0 0 0 0 0 0 0 21 36 0 5 14 33 18 15 34 24 26 17 4 1 0 0 3 0 0 4 6 1
0 0 0 0 0 0 0 0 0 0 0 0 0 0 0 3 0 0 0 0 0 0 32 67 71 67 8 59 40 35 34 17 19 5 1 0 0 1 0 0 4 9 14
0 0 0 0 0 0 0 0 0 0 0 0 0 0 0 0 0 0 0 0 0 0 0 20 34 10 16 12 38 27 20 6 4 3 0 0 0 0 0 1 5 4 4
0 0 0 0 0 0 0 0 0 0 0 0 0 0 0 0 0 0 0 0 0 0 0 0 4 7 0 0 7 5 2 8 1 0 0 0 0 0 0 0 0 0 0
45 1 0 0 0 0 0 0 0 0 0 0 0 0 0 0 0 0 0 0 0 0 0 1 0 1 2 7 2 7 4 3 3 4 0 0 0 0 0 0 0 0 0
71 9 2 2 0 0 0 0 0 0 0 0 0 0 0 0 0 0 0 0 0 0 0 0 0 0 0 1 0 0 1 5 1 0 0 0 0 0 0 0 0 0 0
30 30 5 8 0 0 0 0 0 0 0 0 0 0 0 0 0 0 0 0 0 0 0 0 0 0 0 0 0 0 0 0 0 0 0 0 0 0 0 0 0 0 0
24 12 17 16 1 0 0 0 0 1 0 0 0 0 0 0 0 0 0 0 0 0 0 0 0 0 0 0 0 0 1 0 14 3 0 0 0 0 0 0 0 0 0

GFSMA_con_mucape_033.txt.gz
CAPE
1064 126 635 765 863 776 889 1004 1051 1121 934 714 548 282 486 488 408 323 409 978 1865 1650 1364 1597 1872 1317 1225 1361 1310 983 851 333 586 652 377 853 502 424 224 650 331 163 106
206 291 708 655 520 563 523 821 757 688 757 705 441 404 302 219 276 373 422 541 1707 1648 1504 1581 1932 1942 1334 1267 1533 1290 1052 540 737 1034 870 993 1133 886 514 190 301 329 423
466 561 542 435 210 225 375 583 567 423 404 369 342 292 154 237 264 253 325 410 524 1687 1553 1722 1921 2208 2426 2037 1916 1702 1791 1475 1340 1314 1107 1217 1108 1104 1019 605 535 467 686
319 228 627 585 326 425 300 189 114 97 65 17 0 70 112 51 160 107 385 498 459 561 1197 1699 1359 1392 2282 2003 1965 1820 1875 1368 1474 1507 1379 1228 1226 1117 1065 949 879 745 781
290 145 412 540 380 383 276 242 180 128 77 34 0 0 0 0 41 155 282 444 545 568 522 857 1538 1261 1675 1540 1285 2058 1758 1936 1831 1698 1629 1431 1366 1264 1060 1088 1016 946 860
658 697 716 571 537 351 301 313 206 138 68 57 31 59 20 25 9 133 252 483 587 607 603 598 593 682 1260 1373 1083 1601 1714 1486 1654 1820 1753 1486 1410 1016 892 911 808 854 1026
161 105 145 148 459 433 316 262 168 187 98 39 13 26 0 6 104 171 211 231 380 576 590 599 613 599 583 851 952 926 1203 1158 1065 1135 1171 1222 877 459 446 655 379 562 471
410 405 502 443 105 79 103 60 33 18 57 57 22 53 27 13 39 84 112 163 235 362 372 466 556 612 591 631 578 1006 1029 1032 711 384 724 460 367 268 207 429 318 358 413
479 410 371 235 107 83 95 76 54 26 12 44 66 40 30 17 21 27 175 282 354 409 474 563 592 628 669 700 709 514 656 812 873 659 536 329 513 328 272 235 396 613 520
166 134 132 137 71 43 97 113 92 83 71 43 35 61 36 23 1 18 78 76 248 421 481 514 433 433 584 657 678 516 352 271 228 190 181 214 312 368 512 593 616 415 273
56 74 148 98 80 156 180 182 113 150 207 123 61 17 27 56 76 42 35 21 46 203 338 388 494 649 632 692 500 276 230 134 117 135 66 51 132 332 407 330 466 697 978
0 0 69 102 231 298 369 234 181 275 261 75 71 72 38 34 67 106 88 51 10 62 177 194 272 505 479 343 205 82 59 20 8 34 3 3 73 116 166 250 321 376 520
0 0 99 180 233 374 339 246 144 75 51 43 57 75 73 75 69 52 27 24 28 36 158 184 338 675 266 159 200 48 32 4 0 0 0 11 17 28 53 94 127 199 282
0 5 40 63 165 315 364 320 219 113 40 45 52 71 87 100 118 59 20 20 10 44 111 138 378 675 276 109 23 2 1 0 0 3 10 13 27 33 34 41 42 51 55
170 11 5 9 87 102 110 153 145 46 48 81 70 54 61 34 105 109 67 26 8 20 52 86 122 196 264 97 25 69 2 0 0 1 3 4 10 16 18 22 16 10 9
8 0 0 0 1 9 12 10 16 13 25 34 41 48 93 121 108 152 154 73 60 17 45 56 143 37 1 1 0 0 4 10 0 0 0 3 4 4 14 14 7 4 5
0 0 0 0 0 0 0 0 0 0 0 0 0 0 4 11 47 73 98 129 68 30 23 20 85 23 9 7 5 38 1 1 1 13 10 5 9 1 9 4 31 31 10
0 0 0 0 0 0 0 0 0 0 0 0 0 0 0 0 0 0 1 12 31 48 41 36 13 0 7 6 5 26 4 10 21 19 14 1 1 3 0 0 0 0 0
0 0 0 0 0 0 0 0 0 0 0 0 0 0 0 0 0 0 0 0 14 23 25 15 2 2 3 9 7 6 29 28 34 20 7 7 1 0 0 0 0 0 0
0 0 0 0 0 0 0 0 0 0 0 0 0 0 0 0 0 0 0 0 0 23 25 32 11 29 26 0 27 23 46 27 20 6 11 13 7 0 0 0 0 12 13
0 0 0 0 0 0 0 0 0 0 0 0 0 0 0 0 0 0 0 0 0 3 48 76 64 75 23 28 17 33 13 10 4 0 2 1 0 0 0 0 0 0 0
15 0 0 0 0 0 0 0 0 0 0 0 0 0 0 0 0 0 0 0 0 0 5 11 33 36 34 29 8 19 14 0 0 2 0 0 0 0 0 0 0 0 0
18 10 0 0 0 0 0 0 0 0 0 0 0 0 0 0 0 0 0 0 0 0 0 1 2 3 3 6 11 27 16 2 0 5 16 5 0 0 0 0 0 0 0
50 3 1 0 0 0 0 0 0 0 0 0 0 0 0 0 0 0 0 0 0 0 0 0 0 1 4 7 8 7 7 5 11 10 4 0 0 0 0 0 0 0 0
136 10 10 3 2 0 0 0 0 0 0 0 0 0 0 0 0 0 0 0 0 0 0 0 0 0 0 0 0 0 0 0 2 8 1 0 0 0 0 0 0 0 0
113 12 9 14 9 1 0 0 0 0 3 8 0 0 0 0 0 0 0 0 0 0 0 0 0 0 0 0 0 0 0 0 11 8 2 0 0 0 0 0 0 0 0

GFSMA_con_mucape_036.txt.gz
CAPE
899 760 311 747 816 773 890 1011 1066 1089 936 865 666 492 400 655 614 466 454 738 1306 1430 1849 1305 875 1149 1245 1689 1281 1108 1034 527 346 851 668 659 598 742 457 277 413 169 112
420 385 249 446 606 637 668 714 767 788 853 708 589 450 274 265 326 451 455 755 1409 1383 1537 1601 1220 1564 1422 1687 1594 1487 1091 901 746 977 1153 758 955 844 703 210 539 401 304
629 302 289 388 392 255 288 330 515 644 459 477 481 442 282 193 211 201 378 544 644 1178 1578 1431 1452 1840 1804 2017 1752 1837 1751 1514 1232 1038 1286 941 1126 1001 710 815 585 519 817
383 309 318 269 474 363 193 193 187 218 169 130 115 106 108 154 95 71 218 582 663 552 1189 1667 1376 1377 1420 2080 2092 2028 1897 1816 1529 1336 1335 1208 1176 1078 1022 878 824 879 645
242 224 142 244 439 287 326 306 197 162 142 120 86 0 0 0 0 14 158 327 542 852 697 918 1373 1276 1495 1373 1635 1711 2048 1734 1727 1275 1443 1580 1251 1068 947 1094 996 855 820
356 492 424 583 525 477 351 241 237 230 170 126 65 27 0 12 0 31 85 279 585 690 904 861 1090 955 1434 1291 1144 1085 1013 1053 1236 1269 1496 1490 988 882 655 848 836 845 864
210 115 88 202 165 318 290 210 172 185 154 160 76 25 23 26 79 154 190 257 458 815 834 1105 1105 1073 1043 1157 960 1183 1327 935 758 895 823 854 803 737 698 599 488 486 654
373 324 329 399 300 71 51 66 89 47 31 35 50 20 39 39 38 61 148 232 268 437 777 823 882 835 877 873 951 748 1403 1255 1204 998 455 373 76 361 442 315 233 231 373
253 192 130 84 61 61 52 77 80 68 201 29 52 45 17 25 9 34 90 165 332 380 515 631 742 830 787 790 763 811 916 894 1254 1379 734 417 168 273 122 282 316 238 232
96 42 76 55 43 31 30 38 85 117 97 44 87 118 57 13 30 11 45 37 199 281 359 421 597 629 662 810 575 573 469 339 508 620 421 339 417 455 157 347 414 333 282
0 28 45 40 38 78 110 155 117 111 98 88 68 41 76 96 121 114 44 24 56 136 313 463 424 544 623 740 672 470 240 142 88 164 161 140 148 153 191 184 245 284 309
0 0 54 53 68 114 213 118 105 108 137 149 145 84 41 90 128 37 22 21 53 75 105 138 198 435 638 528 334 133 57 13 0 0 4 9 7 38 99 43 144 286 252
0 0 8 32 86 233 199 166 53 37 64 95 72 60 76 71 65 106 58 58 41 19 74 110 321 385 391 281 117 91 28 2 0 0 0 0 0 5 32 49 102 147 171
2 12 0 40 82 142 209 172 129 49 18 24 40 51 70 86 170 99 65 56 30 15 50 77 133 364 272 31 3 0 0 0 0 0 0 0 0 7 15 21 25 35 46
1 0 0 3 20 23 40 48 8 13 65 43 22 25 40 58 117 125 60 69 105 6 42 63 90 109 189 77 1 0 0 0 0 1 0 0 0 0 0 1 0 2 3
0 0 0 0 0 0 0 0 0 1 17 32 28 47 57 46 27 91 100 68 86 26 19 50 32 69 105 26 0 0 0 0 0 0 0 0 0 4 4 6 0 0 1
0 0 0 0 0 0 0 0 0 0 0 0 0 0 3 23 68 83 99 131 67 54 46 25 36 85 32 2 7 3 7 1 1 2 2 5 12 3 6 6 11 3 4
0 0 0 0 0 0 0 0 0 0 0 0 0 0 0 0 0 0 1 27 53 29 52 25 26 47 17 41 14 6 3 5 13 16 30 34 14 9 2 1 0 0 0
0 0 0 0 0 0 0 0 0 0 0 0 0 0 0 0 0 0 0 0 0 17 36 30 15 11 2 4 4 7 1 19 11 20 14 14 0 0 0 0 1 2 0
0 0 0 0 0 0 0 0 0 0 0 0 0 0 0 0 0 0 0 2 17 38 46 20 19 9 18 7 0 8 11 18 9 6 5 6 8 6 0 0 0 0 8
8 0 0 0 0 0 0 0 0 0 0 0 0 0 0 0 0 0 0 0 0 1 2 38 3 21 9 29 30 25 17 21 8 1 4 3 1 0 0 0 0 0 1
0 1 0 0 0 0 0 0 0 0 0 0 0 0 0 0 0 0 0 0 0 1 1 5 2 3 1 14 18 10 6 14 16 0 0 0 1 2 0 0 0 0 0
7 2 2 0 0 0 0 0 0 0 0 0 0 0 0 0 0 0 0 0 0 0 0 2 1 4 4 6 4 5 7 3 1 0 5 0 5 0 0 0 0 0 0
16 16 11 9 0 0 0 0 0 0 0 0 0 0 0 0 0 0 0 0 0 0 0 0 0 0 1 3 2 4 8 0 0 2 10 0 0 0 0 0 0 0 0
146 44 8 11 4 2 1 0 0 0 0 0 0 0 0 0 0 0 0 0 0 0 0 0 0 0 0 0 0 0 0 0 0 0 4 3 1 0 0 0 0 0 0
80 61 10 11 16 5 5 1 0 3 0 0 0 0 0 0 0 0 0 0 0 0 0 0 0 0 0 0 0 0 0 10 24 26 14 6 0 0 0 0 0 0 0

GFSMA_con_mucape_042.txt.gz
CAPE
1402 1386 1711 1304 1897 2727 2038 2007 1839 1435 1408 1407 1301 1169 1020 955 825 617 417 1240 1349 1756 1402 1412 1591 1636 1844 1851 1826 1310 905 919 582 781 855 746 686 429 507 616 306 196 94
1029 1127 830 844 955 2065 2888 3053 2058 1433 1218 1195 1388 1416 1353 1119 999 931 826 915 1683 1846 1735 1506 2169 1761 1414 1742 1659 1719 1308 987 1438 1184 938 1377 1003 1027 731 665 595 585 463
1064 1571 2359 1778 966 1337 1880 2364 1867 1788 1482 1259 1151 1204 1238 1243 1091 1164 1303 974 1217 1433 1761 2040 2088 1912 1554 1398 1694 1949 1864 1634 1618 1423 1094 1135 1304 998 1149 716 724 754 926
1475 1548 1118 1525 1273 2620 3047 2824 1532 2408 1880 1563 1759 1470 1073 1006 945 1018 1147 1154 916 898 1363 1949 1865 1777 1557 1440 1298 1515 1110 1061 897 1056 1215 1116 1020 1166 1132 1215 935 876 774
1436 2251 2149 1606 1706 1186 1587 1228 1097 1379 1560 1348 955 1027 1020 1013 780 542 662 1094 1168 986 1149 1885 1787 1684 1670 1248 1370 1361 1459 821 552 508 423 629 728 583 969 1099 1114 988 786
1808 1883 1904 1207 1401 1958 2369 2033 1527 1378 1021 892 892 635 774 912 735 382 374 711 1017 973 855 1115 1518 1299 1755 1934 1367 1541 1789 1450 772 505 460 382 438 702 649 695 573 480 712
845 1805 2018 1539 1477 1466 1241 1357 1289 1147 1569 979 1099 618 630 928 960 625 478 218 240 310 552 1119 2864 1521 1286 1377 1333 1579 1711 1529 1560 857 595 467 389 320 346 542 485 436 338
1224 1301 1229 1176 1337 1516 1494 1274 1326 1538 1101 1215 817 660 713 775 705 831 736 686 713 412 736 1593 1992 1877 1837 1325 1419 1264 1334 1301 1185 1079 1031 885 643 422 363 223 246 236 263
956 1025 1063 1169 1315 1247 513 1080 1112 1155 619 613 813 775 980 322 1230 782 975 796 862 813 858 1074 1428 1570 1687 1518 1252 1166 840 733 771 875 1172 900 619 423 303 297 233 198 148
823 705 819 804 944 781 958 990 995 1157 1081 931 662 740 914 1257 1240 1214 1170 1080 1002 857 1124 1409 1385 1561 1611 1803 1321 576 294 283 286 401 494 605 478 314 319 301 268 305 277
460 368 585 662 935 1457 1194 1145 1174 1114 1033 1002 995 594 716 1065 1344 1322 1118 629 804 449 376 661 1168 1708 1403 1416 985 260 158 141 118 78 49 67 78 83 84 111 161 100 123
149 384 549 381 638 1105 1128 1156 1213 1032 813 771 591 512 1008 954 838 1541 1388 1120 887 217 124 262 511 946 730 633 415 110 87 68 45 31 18 4 21 31 51 72 123 130 115
64 327 553 490 413 928 1066 1227 1048 947 971 933 898 1047 933 1368 1629 1746 1616 969 149 300 124 73 78 57 63 72 56 55 46 44 22 1 0 0 0 6 11 18 22 52 82
90 116 380 336 402 672 791 761 432 578 920 1279 829 1026 1323 1393 1749 1605 1365 1262 653 117 161 23 14 16 21 29 27 34 31 27 6 0 0 0 0 0 0 1 1 4 4
36 120 20 64 218 273 402 531 371 284 399 432 829 881 1155 1444 1513 1552 1308 621 997 582 220 44 12 25 54 63 51 23 16 0 0 0 0 0 0 0 0 0 0 0 1
139 187 125 28 86 127 257 297 211 203 350 409 446 588 737 1171 1473 1748 1463 689 638 816 683 21 15 35 29 40 37 12 14 0 0 0 0 0 0 0 0 0 0 0 0
90 123 9 24 35 64 45 61 85 41 39 16 38 99 157 449 560 938 1280 1273 1132 766 38 13 15 16 14 64 89 4 0 0 0 0 5 0 0 0 0 0 0 0 0
13 10 8 12 11 12 18 16 15 16 8 7 5 12 62 116 330 303 627 394 972 779 64 22 34 15 29 1 2 2 3 2 2 5 3 1 3 0 0 0 0 0 0
21 6 5 3 4 4 4 9 12 13 17 8 8 14 13 20 11 5 14 11 113 141 26 23 19 27 34 32 3 4 13 7 4 2 6 11 5 0 0 0 0 0 0
37 8 8 4 2 1 2 2 2 7 9 16 17 16 13 10 12 17 15 31 37 5 90 29 18 26 19 14 11 5 10 13 9 8 10 2 0 0 0 0 0 0 0
31 4 5 6 3 0 1 3 0 3 5 7 15 9 6 0 0 0 15 41 52 29 4 11 10 6 16 17 10 10 10 8 5 10 10 7 1 0 0 0 0 0 0
33 9 3 3 2 0 0 0 0 0 0 0 0 0 2 0 0 0 0 0 0 54 81 30 15 1 1 0 3 0 0 0 10 0 0 0 0 0 3 0 0 0 0
37 11 20 22 10 0 0 0 0 0 0 0 0 0 0 0 0 2 0 0 0 0 4 40 35 50 61 59 54 35 34 23 21 2 5 8 0 0 0 0 0 0 0
29 0 5 27 12 0 0 0 0 0 0 0 0 0 0 0 0 0 0 0 0 0 0 0 0 0 10 21 22 37 48 45 19 30 16 36 0 9 24 7 0 0 0
89 0 8 29 5 0 0 1 0 0 0 0 0 0 0 0 0 0 0 0 0 0 0 0 0 0 0 0 0 1 33 24 93 91 76 73 25 34 34 40 2 0 0
122 4 0 3 5 0 3 7 1 0 8 4 0 0 0 0 0 0 0 0 0 0 0 0 0 0 0 0 0 0 0 0 3 58 123 62 91 73 60 48 47 1 0

GFSMA_con_mucape_045.txt.gz
CAPE
1880 1261 1178 1335 1358 2818 1147 2639 2282 1841 1612 1399 1181 1297 1187 1509 1103 788 1489 2178 1795 1948 1621 1404 1696 1730 1924 2062 1610 1179 847 1178 903 717 860 646 791 461 429 642 573 193 124
881 634 727 738 705 1083 1577 2089 3133 1591 1664 1749 1070 1400 1632 1568 1291 1555 855 1751 2326 2114 1976 1680 2189 2316 1730 1629 2091 1837 1462 1016 1329 1349 914 1184 1325 734 505 494 629 578 660
616 743 632 498 812 1190 2390 2310 2630 2377 2050 1794 1854 1856 1749 1633 919 1577 1462 1547 1283 1735 2080 2169 2149 2356 2271 1916 1596 1558 1658 1446 1263 1210 1239 1045 1122 1432 1085 857 933 841 916
535 1074 1667 1140 1267 1789 2013 2800 2960 1768 2490 2125 2751 1417 1637 1580 1999 1559 1418 1106 1847 879 1490 1916 1976 2225 2295 1768 1408 1084 1155 1169 518 705 917 1070 1083 1005 1124 1214 1152 1071 879
949 1764 1125 1281 1851 1265 2745 2176 1636 2220 1779 1854 1922 2311 1613 1590 1666 789 974 1233 1421 1228 1074 1316 1810 1969 1924 1336 1338 812 523 884 595 441 358 393 367 521 888 948 1043 1034 1022
699 2344 1913 2414 2175 2835 3019 1511 1858 2155 1341 1565 1116 627 1444 1380 929 924 653 527 861 1163 987 1315 2039 1143 1976 1747 1693 1773 1488 1029 847 612 620 670 413 394 536 348 442 835 898
1742 2307 2883 2510 2584 2643 1873 1630 1659 1968 989 1030 1287 825 1051 1105 1094 1010 991 313 565 1076 1041 983 1453 1601 1360 1552 1547 1615 1639 1724 1630 814 1047 868 849 708 492 375 370 411 434
1297 1308 1513 1943 1481 1807 1946 1578 1675 1790 1621 1631 1365 1881 965 765 529 654 758 791 428 462 430 1029 1375 2314 2091 1309 1230 1558 1654 1507 1484 1485 1318 1023 875 367 408 451 429 176 304
1066 1034 1153 1073 1432 1584 471 2383 1338 1461 2063 1978 1405 1003 905 1223 936 955 1460 1176 1517 1540 561 1091 980 167 2247 1100 1268 1357 1262 1179 931 976 1430 1409 922 388 357 385 396 202 261
936 626 705 947 917 918 1795 1209 2103 1606 1611 1372 1672 1829 950 1285 1330 1198 1926 2092 1407 1250 1431 1423 1529 1468 1111 1192 811 648 318 297 443 473 523 554 610 472 337 353 395 296 185
531 473 846 1458 1365 1675 1789 1671 1451 1567 1717 1438 1409 1243 1270 1078 903 1570 809 1009 629 448 637 829 1240 1281 935 516 554 108 88 113 94 92 60 74 83 91 90 102 132 177 197
362 635 791 790 877 1118 1549 1595 1531 1112 1329 1355 1814 826 711 1256 1622 1170 1485 695 737 155 450 109 181 191 342 365 177 57 66 57 51 34 20 21 35 83 117 127 137 179 165
206 768 826 908 919 1142 1153 1269 1277 1449 1312 1210 1180 1312 1067 1426 1446 1964 1840 500 523 434 16 14 32 89 82 101 63 18 24 32 17 6 0 0 0 0 2 12 18 24 28
950 452 626 592 782 942 1016 818 616 725 798 1200 1146 1313 1544 1901 1719 2348 1776 724 471 537 183 7 20 5 4 14 20 13 19 15 11 3 0 0 0 0 0 0 0 1 3
264 317 162 200 454 766 416 571 470 939 870 946 926 1123 1749 1995 1967 1571 1437 1266 640 395 112 24 4 3 4 7 16 20 19 6 1 0 0 0 0 0 0 0 0 0 0
444 449 119 513 320 485 729 985 541 411 319 418 519 791 1087 1491 1718 1769 1407 1470 1288 1084 262 1 0 2 22 34 37 15 0 0 0 0 0 0 0 0 0 0 0 0 0
222 222 133 177 123 139 120 156 253 99 117 245 228 382 504 895 1546 1351 1577 1609 1452 1532 50 1 2 9 8 2 35 7 0 0 0 0 4 7 1 1 0 0 0 0 0
197 123 163 147 80 60 67 40 20 179 12 16 17 71 178 82 366 443 406 844 1122 998 6 13 20 24 9 33 2 12 1 0 0 9 6 4 1 0 0 0 0 0 0
118 63 22 7 10 8 6 9 14 17 8 41 13 21 18 62 64 101 155 140 46 89 3 11 12 11 23 26 17 2 5 15 4 4 8 17 16 4 0 0 0 0 0
108 64 42 5 2 3 4 2 6 9 12 11 11 7 2 1 9 44 73 341 56 1 1 5 14 18 19 18 11 18 4 18 8 5 5 19 6 3 0 0 0 0 0
143 82 57 14 2 1 1 0 4 6 6 10 6 0 0 0 0 0 14 36 137 3 3 27 27 31 17 11 20 1 3 0 0 2 2 2 0 0 0 0 0 0 0
194 124 65 39 3 0 0 0 0 0 0 1 1 2 0 0 0 0 0 0 2 130 59 14 0 10 24 24 9 5 13 2 11 1 15 43 83 30 4 0 0 0 0
256 129 35 60 32 0 0 0 0 0 0 0 0 0 0 0 8 1 0 0 0 0 13 119 77 71 61 61 58 47 45 55 58 32 78 58 36 86 26 0 0 0 0
249 106 92 221 35 0 0 0 0 6 5 0 0 0 0 0 0 0 0 0 0 0 0 0 0 0 0 4 20 38 57 52 33 50 67 69 45 80 35 9 0 0 0
318 82 54 152 19 0 0 0 0 14 2 0 0 0 0 0 0 0 0 0 0 0 0 0 0 0 0 0 0 0 102 11 55 102 86 134 52 103 91 6 0 0 0
328 95 128 46 5 3 0 4 6 10 0 2 2 0 0 0 0 0 0 0 0 0 0 0 0 0 0 0 0 0 0 0 2 61 75 42 104 45 66 75 28 4 1